Regional Weather Roundup
Issued by NWS

Home | Current Version | Previous Version | Graphics & Text | Print | Product List | Glossary Off
Versions: 1 2 3 4 5 6 7 8 9 10 11 12 13 14 15 16 17 18 19 20 21 22 23 24 25 26 27 28 29 30 31 32 33 34 35 36 37 38 39 40 41 42 43 44 45 46 47 48 49 50

000
ASUS43 KTOP 010559
RWRKS

WEATHER ROUNDUP FOR KANSAS
NATIONAL WEATHER SERVICE GOODLAND KS
100 AM CDT TUE SEP 01 2015

NOTE:  "FAIR" INDICATES FEW OR NO CLOUDS BELOW 12,000 FEET WITH NO
SIGNIFICANT WEATHER AND/OR OBSTRUCTIONS TO VISIBILITY.

KSZ001>006-013>018-027>032-041>047-010700-
NORTHWEST KANSAS

CITY           SKY/WX    TMP DP  RH WIND       PRES   REMARKS
GOODLAND       CLOUDY    66  62  87 NW13      30.01F THUNDER
6HR MIN TEMP:  65; 6HR MAX TEMP:  92; 6HR PCP: TRACE;

HAYS           FAIR      77  54  44 S12G17    29.95S
HILL CITY      FAIR      77  55  46 S9        29.94R
6HR MIN TEMP:  77; 6HR MAX TEMP:  96;

RUSSELL        FAIR      75  56  51 S13       29.94R
6HR MIN TEMP:  75; 6HR MAX TEMP:  94;

$$

KSZ061>065-074>080-084>089-010700-
SOUTHWEST KANSAS

CITY           SKY/WX    TMP DP  RH WIND       PRES   REMARKS
DODGE CITY     FAIR      73  52  47 S14       29.99R
6HR MIN TEMP:  73; 6HR MAX TEMP:  91;

ELKHART          N/A     73  53  49 SW8         N/A
GARDEN CITY    MOCLDY    71  55  56 S7        29.99R
6HR MIN TEMP:  71; 6HR MAX TEMP:  91;

GREAT BEND     FAIR      75  57  53 S15       29.97R
LIBERAL        FAIR      72  50  46 S9        30.00S
$$

KSZ066>073-081>083-090>101-010700-
SOUTHEAST KANSAS

CITY           SKY/WX    TMP DP  RH WIND       PRES   REMARKS
CHANUTE        FAIR      75  69  81 S7        30.01S
6HR MIN TEMP:  75; 6HR MAX TEMP:  84;

COFFEYVILLE    FAIR      75  70  84 S9        30.00S
6HR MIN TEMP:  75; 6HR MAX TEMP:  84;

HUTCHINSON     FAIR      74  62  66 SE8       29.98R
6HR MIN TEMP:  74; 6HR MAX TEMP:  87;

NEWTON         FAIR      73  63  68 S10       30.01S
PARSONS        FAIR      76  70  82 S5        30.02R
6HR MIN TEMP:  76; 6HR MAX TEMP:  84;

WICHITA INTL   FAIR      76  66  71 S10       29.98R
6HR MIN TEMP:  76; 6HR MAX TEMP:  89;

WICHITA JABRA  FAIR      74  67  78 S9        29.99R
6HR MIN TEMP:  74; 6HR MAX TEMP:  86;

WINFIELD       FAIR      77  65  66 S14       30.00R
6HR MIN TEMP:  77; 6HR MAX TEMP:  88;

$$

KSZ007>012-019>026-033>040-048>060-102>105-010700-
NORTHEAST KANSAS

CITY           SKY/WX    TMP DP  RH WIND       PRES   REMARKS
CONCORDIA      FAIR      76  63  64 S20       29.93R
6HR MIN TEMP:  74; 6HR MAX TEMP:  85;

EMPORIA        FAIR      74  69  85 S14       29.99R
6HR MIN TEMP:  74; 6HR MAX TEMP:  85;

LAWRENCE       FAIR      76  70  82 S9        29.98S
6HR MIN TEMP:  74; 6HR MAX TEMP:  85;

MANHATTAN      FAIR      78  67  68 SW10      29.95R
6HR MIN TEMP:  78; 6HR MAX TEMP:  88;

OLATHE IND     FAIR      73  69  87 S8        30.01S
6HR MIN TEMP:  73; 6HR MAX TEMP:  83;

OLATHE EXE     FAIR      73  68  84 S6        30.00S
6HR MIN TEMP:  73; 6HR MAX TEMP:  82;

SALINA         FAIR      78  63  59 S12       29.95R
6HR MIN TEMP:  77; 6HR MAX TEMP:  89;

TOPEKA BILLARD FAIR      77  69  76 S8        29.97S
6HR MIN TEMP:  77; 6HR MAX TEMP:  86;

TOPEKA FORBES  FAIR      77  69  76 S9        29.98S
6HR MIN TEMP:  77; 6HR MAX TEMP:  86;

$$


USA.gov is the U.S. government's official web portal to all federal, state and local government web resources and services.